Volver al catálogo

STARLINK-32753

ActivoComunicacionesVLEO
NORAD 62481·PAYLOAD·🇺🇸 United States

Lanzado Dec 31, 2024 desde Cape Canaveral Space Force Station

Loading…

Próximos Pases (próximas 24 horas)

TLE

ActualizadoSource: CelesTrak SupGP

Época: Sep 14, 2026, 14:07 UTC

1 62481C 24254V   26257.58868056 -.00062993  00000+0 -22813-2 0  2571
2 62481  43.0033  29.2881 0001587 274.8823 163.9298 15.27613398    15

Sigue STARLINK-32753 en tiempo real con AllMySat

Download on the App Store